�N����,����,�~����,�C��,���x,�C��,����,���ϕ���,�ő�u�ԕ���,�ő厞����,���˗�,�I�_���x,�n�����x,�ő啗���N��,DTYPE
"22/07/15","00:10",0.0,23.7,95.2,996.3,303.7,0.8,1.6,318.3,0.00,22.9,24.6,"00:00:08",1
"22/07/15","00:20",0.0,23.6,95.3,996.3,314.9,0.7,1.2,329.3,0.00,22.8,24.4,"00:10:32",1
"22/07/15","00:30",0.0,23.8,95.4,996.5,324.6,0.7,1.2,323.2,0.00,23.1,24.4,"00:29:36",1
"22/07/15","00:40",0.0,23.8,95.3,996.5,328.5,1.1,1.6,345.8,0.00,23.0,24.6,"00:31:52",1
"22/07/15","00:50",0.0,23.8,95.4,996.5,297.2,0.8,1.0,303.1,0.00,23.1,24.6,"00:41:12",1
"22/07/15","01:00",0.0,23.8,95.4,996.3,331.0,1.0,1.2,336.5,0.00,23.1,24.6,"00:54:56",1
"22/07/15","01:10",0.0,23.8,95.5,996.3,314.2,0.7,1.2,326.5,0.00,23.1,24.5,"01:08:16",1
"22/07/15","01:20",0.0,23.8,95.5,996.0,309.6,1.0,1.4,326.7,0.00,23.1,24.6,"01:19:04",1
"22/07/15","01:30",0.0,23.7,95.5,995.8,307.3,0.8,1.2,297.3,0.00,23.0,24.7,"01:21:20",1
"22/07/15","01:40",0.0,23.7,95.6,996.0,314.3,1.0,1.7,321.2,0.00,23.0,24.5,"01:31:36",1
"22/07/15","01:50",0.0,23.7,95.6,995.8,315.7,1.0,1.4,330.8,0.00,23.0,24.5,"01:42:08",1
"22/07/15","02:00",0.0,23.6,95.7,996.3,314.0,0.5,1.1,320.4,0.00,22.9,24.6,"01:51:12",1
"22/07/15","02:10",1.8,23.7,95.7,996.0,338.5,1.1,1.9,338.9,0.00,23.0,24.5,"02:04:32",1
"22/07/15","02:20",0.0,23.7,95.7,996.0,284.3,0.5,0.9,314.6,0.00,23.0,24.4,"02:12:16",1
"22/07/15","02:30",0.0,23.7,95.7,995.8,276.6,0.7,1.0,258.1,0.00,23.0,24.5,"02:26:32",1
"22/07/15","02:40",0.0,23.7,95.8,995.8,2.3,0.6,1.3,350.0,0.00,23.0,24.6,"02:30:24",1
"22/07/15","02:50",0.0,23.7,95.8,995.8,342.4,0.8,1.3,355.1,0.00,23.0,24.5,"02:44:24",1
"22/07/15","03:00",0.0,23.7,95.8,995.6,332.9,0.7,1.4,343.6,0.00,23.0,24.5,"02:54:00",1
"22/07/15","03:10",0.0,23.7,95.9,995.3,354.0,0.5,0.9,339.7,0.00,23.0,24.6,"03:08:32",1
"22/07/15","03:20",0.0,23.7,95.9,995.6,322.2,0.8,1.3,343.1,0.00,23.0,24.3,"03:17:52",1
"22/07/15","03:30",0.0,23.6,96.0,995.1,325.1,0.7,1.2,314.8,0.00,23.0,24.4,"03:21:28",1
"22/07/15","03:40",0.0,23.6,96.0,995.3,289.4,0.3,0.9,269.7,0.00,23.0,24.4,"03:35:20",1
"22/07/15","03:50",0.0,23.6,96.0,995.3,353.1,0.7,1.4,346.7,0.00,23.0,24.4,"03:46:00",1
"22/07/15","04:00",0.0,23.7,96.0,995.1,340.0,0.8,1.3,357.0,0.00,23.1,24.4,"03:51:04",1
"22/07/15","04:10",0.0,23.6,96.0,995.1,316.0,0.5,1.0,339.3,0.00,23.0,24.5,"04:01:04",1
"22/07/15","04:20",0.0,23.6,96.0,995.3,264.7,0.5,1.0,255.7,0.00,23.0,24.4,"04:11:52",1
"22/07/15","04:30",0.0,23.6,96.1,995.1,311.0,0.5,0.6,310.2,0.00,23.0,24.4,"04:25:12",1
"22/07/15","04:40",0.0,23.6,96.1,995.1,335.4,0.8,1.6,331.5,0.00,23.0,24.5,"04:34:32",1
"22/07/15","04:50",0.0,23.6,96.1,995.6,337.2,0.7,1.0,333.7,0.00,23.0,24.3,"04:44:40",1
"22/07/15","05:00",0.2,23.6,96.2,995.1,326.3,0.6,1.1,341.8,0.00,23.0,24.3,"04:54:08",1
"22/07/15","05:10",0.0,23.6,96.2,995.1,305.4,0.3,0.5,289.7,0.00,23.0,24.6,"05:03:12",1
"22/07/15","05:20",0.0,23.7,96.2,995.1,313.9,0.7,1.0,305.0,0.00,23.1,24.4,"05:12:48",1
"22/07/15","05:30",0.0,23.6,96.2,995.1,296.3,0.6,1.0,312.3,0.00,23.0,24.3,"05:28:32",1
"22/07/15","05:40",0.0,23.6,96.2,995.1,337.2,0.7,1.0,318.2,0.00,23.0,24.5,"05:32:08",1
"22/07/15","05:50",0.0,23.6,96.3,995.3,326.4,1.0,1.6,335.2,0.00,23.0,24.4,"05:44:24",1
"22/07/15","06:00",0.0,23.7,96.3,995.3,332.2,0.8,1.4,330.4,0.00,23.1,24.3,"05:57:12",1
"22/07/15","06:10",0.0,23.7,96.3,995.1,321.3,1.0,1.6,340.6,0.00,23.1,24.2,"06:01:20",1
"22/07/15","06:20",0.0,23.7,96.3,995.3,311.5,0.8,1.4,341.4,0.00,23.1,24.3,"06:10:08",1
"22/07/15","06:30",0.0,23.7,96.4,995.1,313.0,0.7,1.0,318.3,0.00,23.1,24.5,"06:23:44",1
"22/07/15","06:40",0.0,23.6,96.4,995.1,300.2,0.8,1.1,313.1,0.00,23.0,24.3,"06:37:20",1
"22/07/15","06:50",0.0,23.7,96.4,995.6,328.8,1.0,1.4,311.8,0.00,23.1,24.3,"06:41:28",1
"22/07/15","07:00",0.0,23.7,96.4,995.6,341.5,0.7,1.1,346.5,0.00,23.1,24.4,"06:53:20",1
"22/07/15","07:10",0.0,23.9,96.4,995.6,324.2,0.7,1.2,338.0,0.00,23.3,24.6,"07:07:22",1
"22/07/15","07:20",0.0,23.9,96.4,995.8,310.4,1.1,1.8,318.8,0.00,23.3,24.4,"07:12:32",1
"22/07/15","07:30",0.0,23.8,96.5,996.0,276.6,1.0,1.6,280.3,0.00,23.2,24.3,"07:29:20",1
"22/07/15","07:40",0.0,23.9,96.5,995.8,302.3,0.8,1.3,265.1,0.00,23.3,24.3,"07:30:08",1
"22/07/15","07:50",0.0,23.9,96.5,995.8,300.9,0.8,1.4,334.7,0.00,23.3,24.4,"07:40:56",1
"22/07/15","08:00",0.0,24.0,96.5,996.3,294.7,0.6,1.0,305.0,0.00,23.4,24.5,"07:55:36",1
"22/07/15","08:10",0.0,24.1,96.5,995.8,305.1,0.6,1.0,336.5,0.02,23.5,24.5,"08:04:56",1
"22/07/15","08:20",0.0,24.3,96.5,995.8,292.4,0.6,1.2,315.5,0.03,23.7,24.4,"08:17:12",1
"22/07/15","08:30",0.0,24.5,96.5,995.8,323.1,1.0,1.8,331.6,0.03,23.9,24.4,"08:27:20",1
"22/07/15","08:40",0.0,24.6,96.5,995.8,295.0,0.5,1.1,342.5,0.07,24.0,24.4,"08:30:40",1
"22/07/15","08:50",0.0,25.1,96.6,995.3,289.4,0.6,1.1,261.4,0.16,24.6,24.4,"08:45:44",1
"22/07/15","09:00",0.0,25.6,96.4,995.1,231.2,0.5,1.3,235.8,0.20,25.0,24.4,"08:55:12",1
"22/07/15","09:10",0.0,26.0,96.4,994.6,254.6,0.3,1.4,310.9,0.20,25.4,24.4,"09:04:56",1
"22/07/15","09:20",0.0,25.9,96.2,994.6,341.0,0.5,1.2,326.4,0.13,25.3,24.5,"09:18:24",1
"22/07/15","09:30",0.0,26.0,95.7,994.8,282.7,0.5,1.2,318.5,0.12,25.3,24.4,"09:20:24",1
"22/07/15","09:40",0.0,25.9,95.8,994.8,19.1,0.7,2.2,354.5,0.14,25.2,24.5,"09:33:20",1
"22/07/15","09:50",0.0,25.5,95.7,994.8,337.5,1.1,1.7,353.1,0.14,24.8,24.4,"09:44:56",1
"22/07/15","10:00",0.0,26.0,95.5,994.6,17.8,0.6,1.3,348.1,0.19,25.3,24.3,"09:55:20",1
"22/07/15","10:10",0.0,26.6,94.8,994.1,194.5,0.7,1.9,206.9,0.25,25.7,24.5,"10:05:28",1
"22/07/15","10:20",0.0,26.6,94.2,994.1,196.1,0.7,1.9,143.8,0.16,25.6,24.4,"10:10:40",1
"22/07/15","10:30",0.0,26.8,93.6,994.6,183.6,0.3,1.0,191.5,0.11,25.7,24.4,"10:26:00",1
"22/07/15","10:40",0.0,26.9,93.2,994.4,211.2,0.3,0.9,237.1,0.13,25.7,24.6,"10:33:28",1
"22/07/15","10:50",0.0,26.9,91.8,994.1,73.2,0.5,1.2,85.0,0.17,25.5,24.4,"10:41:20",1
"22/07/15","11:00",0.0,27.5,91.0,994.8,314.4,0.5,1.3,339.1,0.16,25.9,24.5,"10:54:32",1
"22/07/15","11:10",0.0,28.2,89.6,994.8,161.6,0.3,1.2,146.1,0.18,26.4,24.7,"11:08:08",1
"22/07/15","11:20",0.0,28.5,87.4,995.1,16.8,0.5,1.3,331.0,0.20,26.2,24.4,"11:12:00",1
"22/07/15","11:30",0.0,29.2,83.7,995.1,235.2,0.7,1.9,218.0,0.35,26.2,24.7,"11:22:16",1
"22/07/15","11:40",0.0,29.3,81.2,995.1,160.7,0.8,2.0,227.2,0.20,25.8,24.6,"11:30:02",1
"22/07/15","11:50",0.0,29.4,79.7,995.1,157.4,1.0,2.4,205.5,0.29,25.6,24.6,"11:49:20",1
"22/07/15","12:00",0.0,29.8,78.7,995.1,179.6,1.6,2.8,221.8,0.42,25.7,24.6,"11:51:04",1
"22/07/15","12:10",0.0,29.3,78.2,994.6,181.7,1.5,3.2,149.2,0.21,25.1,24.8,"12:02:32",1
"22/07/15","12:20",0.0,29.5,77.7,994.4,186.1,1.0,2.5,194.5,0.19,25.2,24.7,"12:12:00",1
"22/07/15","12:30",0.0,29.2,78.5,994.4,162.2,1.1,2.6,181.0,0.16,25.1,24.9,"12:26:56",1
"22/07/15","12:40",0.0,29.5,77.8,994.6,218.7,1.2,3.1,238.2,0.21,25.3,24.8,"12:37:20",1
"22/07/15","12:50",0.0,29.6,77.9,994.6,202.8,1.6,3.3,224.6,0.22,25.4,24.8,"12:43:12",1
"22/07/15","13:00",0.0,29.8,77.1,994.4,167.0,1.1,2.8,213.7,0.20,25.4,24.8,"12:51:20",1
"22/07/15","13:10",0.0,29.8,76.6,994.4,170.9,1.0,2.5,155.7,0.14,25.3,25.0,"13:03:44",1
"22/07/15","13:20",0.0,29.9,76.7,994.4,170.3,1.1,3.1,138.2,0.18,25.4,24.8,"13:17:28",1
"22/07/15","13:30",0.0,29.7,76.2,993.7,184.5,1.8,4.0,208.9,0.20,25.1,25.0,"13:28:08",1
"22/07/15","13:40",0.0,30.2,74.8,993.7,196.5,1.2,3.2,201.2,0.23,25.3,25.2,"13:31:44",1
"22/07/15","13:50",0.0,30.2,74.1,993.7,185.1,1.6,4.1,215.7,0.21,25.1,25.2,"13:41:12",1
"22/07/15","14:00",0.0,30.1,72.5,993.4,203.2,1.8,4.2,189.6,0.14,24.6,25.0,"13:58:08",1
"22/07/15","14:10",0.0,30.1,73.2,993.0,181.2,1.3,2.6,182.1,0.14,24.8,25.2,"14:00:08",1
"22/07/15","14:20",0.0,30.6,73.5,993.2,191.5,1.5,2.8,216.6,0.25,25.4,25.1,"14:11:12",1
"22/07/15","14:30",0.0,31.2,70.0,993.7,216.8,1.6,3.2,236.0,0.35,25.1,24.9,"14:20:24",1
"22/07/15","14:40",0.0,31.4,69.1,993.9,192.4,1.7,2.9,211.5,0.33,25.1,25.2,"14:30:16",1
"22/07/15","14:50",0.0,32.9,66.7,993.7,192.3,1.6,2.7,237.8,0.55,25.9,25.2,"14:43:12",1
"22/07/15","15:00",0.0,32.2,64.5,994.1,209.4,1.8,3.9,191.9,0.30,24.7,25.2,"14:50:40",1
"22/07/15","15:10",0.0,31.2,67.5,993.9,184.1,1.8,3.1,182.3,0.18,24.5,25.2,"15:09:36",1
"22/07/15","15:20",0.0,30.7,67.6,993.7,195.8,2.5,5.4,236.6,0.16,24.1,25.3,"15:13:12",1
"22/07/15","15:30",0.0,30.5,67.9,993.2,187.3,2.0,3.2,226.4,0.12,23.9,25.3,"15:24:08",1
"22/07/15","15:40",0.0,30.4,68.2,993.0,207.3,2.3,4.3,198.7,0.08,23.9,25.2,"15:31:20",1
"22/07/15","15:50",0.0,30.1,70.0,992.5,199.0,1.8,3.7,217.9,0.04,24.1,25.4,"15:46:24",1
"22/07/15","16:00",0.0,29.9,71.0,993.0,215.2,2.0,4.0,205.0,0.04,24.1,25.2,"15:51:28",1
"22/07/15","16:10",0.0,30.0,72.1,993.0,279.1,0.7,1.7,319.9,0.06,24.5,25.2,"16:00:02",1
"22/07/15","16:20",0.0,29.7,72.3,992.5,284.9,0.5,2.0,322.2,0.05,24.2,25.4,"16:19:44",1
"22/07/15","16:30",0.0,29.5,73.2,992.7,289.4,1.0,2.6,344.3,0.05,24.2,25.3,"16:28:08",1
"22/07/15","16:40",0.0,29.3,73.9,993.0,307.4,0.7,1.7,327.4,0.02,24.2,25.3,"16:39:52",1
"22/07/15","16:50",0.0,28.6,75.0,992.7,308.9,2.0,4.1,256.4,0.00,23.8,25.2,"16:41:28",1
"22/07/15","17:00",0.0,28.2,75.6,992.7,302.1,1.6,3.1,343.2,0.01,23.5,25.2,"16:58:16",1
"22/07/15","17:10",0.0,28.0,77.5,992.7,324.1,2.0,3.7,341.8,0.05,23.7,25.1,"17:01:12",1
"22/07/15","17:20",0.4,27.4,80.1,992.7,0.4,1.2,3.2,353.5,0.08,23.7,25.2,"17:12:24",1
"22/07/15","17:30",0.0,26.4,82.9,993.0,328.0,1.6,3.2,307.0,0.05,23.3,25.3,"17:22:24",1
"22/07/15","17:40",0.0,26.1,84.7,993.4,334.2,1.8,3.7,348.4,0.05,23.4,25.2,"17:36:40",1
"22/07/15","17:50",0.0,25.9,85.9,993.4,331.8,2.1,3.9,317.2,0.05,23.4,25.3,"17:43:12",1
"22/07/15","18:00",0.0,25.8,86.8,993.9,334.3,2.5,4.2,349.7,0.04,23.5,25.5,"17:58:24",1
"22/07/15","18:10",0.0,25.6,87.4,994.1,338.1,2.0,4.0,342.7,0.03,23.4,25.3,"18:05:52",1
"22/07/15","18:20",0.0,25.6,87.9,994.1,325.8,1.8,5.0,324.3,0.02,23.5,25.1,"18:12:48",1
"22/07/15","18:30",0.0,25.3,88.3,994.1,328.4,2.1,4.3,333.6,0.01,23.3,25.2,"18:24:32",1
"22/07/15","18:40",0.2,25.1,88.8,993.9,335.4,1.5,3.7,341.9,0.01,23.2,25.4,"18:32:24",1
"22/07/15","18:50",0.0,25.0,89.1,994.6,324.6,1.2,2.5,308.1,0.00,23.1,25.2,"18:48:24",1
"22/07/15","19:00",0.0,24.8,89.5,994.4,336.4,1.8,3.2,351.3,0.00,23.0,25.4,"18:54:56",1
"22/07/15","19:10",0.0,24.7,89.8,994.1,326.1,1.7,3.4,337.9,0.00,23.0,25.2,"19:02:08",1
"22/07/15","19:20",0.0,24.5,90.0,994.4,328.5,2.0,3.1,334.0,0.00,22.8,25.2,"19:17:52",1
"22/07/15","19:30",0.0,24.6,90.3,994.6,341.7,1.5,2.6,345.0,0.00,22.9,25.2,"19:23:12",1
"22/07/15","19:40",0.0,24.3,90.4,994.6,308.3,1.3,2.5,331.1,0.00,22.7,25.2,"19:35:04",1
"22/07/15","19:50",0.0,24.4,90.6,994.4,325.8,1.8,3.5,339.8,0.00,22.8,25.3,"19:48:00",1
"22/07/15","20:00",0.0,24.3,90.8,994.8,328.9,2.1,3.4,343.6,0.00,22.7,25.1,"19:53:20",1
"22/07/15","20:10",0.0,24.2,91.1,994.4,333.3,2.2,3.6,341.9,0.00,22.7,25.2,"20:03:36",1
"22/07/15","20:20",0.0,24.1,91.4,994.6,324.0,2.0,2.7,338.0,0.00,22.7,25.1,"20:10:08",1
"22/07/15","20:30",0.0,24.2,91.6,994.8,310.5,1.3,2.1,330.5,0.00,22.8,25.2,"20:23:04",1
"22/07/15","20:40",0.0,24.1,91.8,995.1,290.5,1.1,1.4,303.6,0.00,22.7,25.0,"20:30:40",1
"22/07/15","20:50",0.0,23.9,92.0,995.1,292.9,1.2,2.1,307.5,0.00,22.6,25.2,"20:48:08",1
"22/07/15","21:00",0.0,23.7,92.3,995.1,321.6,2.2,4.3,330.1,0.00,22.4,25.2,"20:58:16",1
"22/07/15","21:10",0.0,23.9,92.4,995.3,332.8,2.3,3.4,338.5,0.00,22.6,25.2,"21:02:24",1
"22/07/15","21:20",0.0,23.8,92.4,995.6,327.5,1.5,2.6,342.8,0.00,22.5,25.2,"21:10:24",1
"22/07/15","21:30",0.0,23.7,92.6,995.6,298.6,1.1,2.0,319.2,0.00,22.5,24.9,"21:21:28",1
"22/07/15","21:40",0.0,23.7,92.7,995.6,300.0,1.3,2.0,301.6,0.00,22.5,25.1,"21:36:00",1
"22/07/15","21:50",0.0,23.6,92.8,995.6,292.5,1.0,1.6,308.3,0.00,22.4,25.2,"21:47:04",1
"22/07/15","22:00",0.0,23.6,92.9,995.6,313.3,1.3,1.6,330.4,0.00,22.4,25.0,"21:52:08",1
"22/07/15","22:10",0.0,23.5,93.0,995.8,278.5,0.7,1.3,263.1,0.00,22.3,25.0,"22:01:44",1
"22/07/15","22:20",0.0,23.5,93.1,995.3,300.9,1.2,1.9,317.6,0.00,22.4,24.9,"22:16:32",1
"22/07/15","22:30",0.0,23.4,93.2,995.1,306.3,1.0,1.4,344.1,0.00,22.3,25.0,"22:26:48",1
"22/07/15","22:40",0.0,23.3,93.3,995.3,303.7,1.1,1.8,325.3,0.00,22.2,24.9,"22:39:52",1
"22/07/15","22:50",0.0,23.3,93.5,995.3,315.6,1.5,2.4,323.8,0.00,22.2,24.9,"22:49:44",1
"22/07/15","23:00",0.0,23.3,93.5,995.3,307.3,1.5,2.5,320.2,0.00,22.2,24.8,"22:57:04",1
"22/07/15","23:10",0.0,23.2,93.6,995.8,10.8,0.6,1.7,337.7,0.00,22.2,25.0,"23:01:28",1
"22/07/15","23:20",0.0,23.3,93.8,995.6,329.8,1.3,2.6,326.6,0.00,22.3,24.7,"23:18:00",1
"22/07/15","23:30",0.0,23.2,93.8,995.6,317.4,0.5,1.1,267.4,0.00,22.2,24.9,"23:20:56",1
"22/07/15","23:40",0.0,23.2,93.9,995.8,336.9,1.3,1.9,334.8,0.00,22.2,25.0,"23:30:56",1
"22/07/15","23:50",0.0,23.0,94.0,995.8,296.4,1.0,1.6,314.8,0.00,22.0,25.0,"23:49:52",1
"22/07/15","24:00",0.0,23.0,94.1,995.3,316.5,1.2,1.6,311.1,0.00,22.0,24.7,"23:50:24",1
